333P/LINEAR (2016)

Japanese version
Home page
Updated on June 6, 2020

---------------------------------------------------------------------

* Profile

* Pictures

* Orbital Elements

Epoch 2016 Apr. 2.0 TT = JDT 2457480.5                                          
T 2016 Apr. 3.89030 TT                                  Rudenko                 
q   1.1151596            (2000.0)            P               Q                  
n   0.11349781     Peri.   26.14445     -0.12205170     +0.73071993             
a   4.2248477      Node   115.56568     +0.72892620     -0.39330822             
e   0.7360474      Incl.  131.87703     +0.67362451     +0.55799375             
P   8.68                                                                        
From 626 observations 2007 Nov. 4-2017 July 27, mean residual 0".4.             

* Finding Charts

* Magnitudes Graph

        H = 15.0  G = 0.15               [   ,-57]  (             - 2016 Feb.  6)
        m1 = 6.5 + 5 log d + 80   log r  [-57,-20]  (2016 Feb.  6 - 2016 Mar. 14)
        m1 = 9.5 + 5 log d + 30.0 log r  [-20,118]  (2016 Mar. 14 - 2016 July 30)
        H = 15.0  G = 0.15               [118,   ]  (2016 July 30 -             )

---------------------------------------------------------------------

The orbital elements are published on M.P.E.C. 2020-L06.
The charts are made with StellaNavigator Ver.8 (AstroArts).
The magnitudes graphs are made with Comet for Windows.

---------------------------------------------------------------------

Copyright(C) Seiichi Yoshida (comet@aerith.net). All rights reserved.